Stations météo

Publicité
Le Havre/Octeville, France (7046): Température de l'air & dewpoint: 17.04.2017 23:00:00 - 23.04.2017 23:00:00 (CEST)Le Havre/Octeville, France (7046): Vitesse du vent & gusts: 17.04.2017 23:00:00 - 23.04.2017 23:00:00 (CEST)Le Havre/Octeville, France (7046): Direction du vent: 17.04.2017 23:00:00 - 23.04.2017 23:00:00 (CEST)Le Havre/Octeville, France (7046): reduced air pressure: 17.04.2017 23:00:00 - 23.04.2017 23:00:00 (CEST)Le Havre/Octeville, France (7046): visibility: 17.04.2017 23:00:00 - 23.04.2017 23:00:00 (CEST)Le Havre/Octeville, France (7046): Quantités de précipitations: 17.04.2017 23:00:00 - 23.04.2017 23:00:00 (CEST)
Date & Time tt [°C] td [°C] ff [km/h] ff [knt] fx [km/h] fx [knt] dd ppp [hPa] vv [km] rr [mm]
23.04.2017 23:00:00 8,0 2,9 8 4 12 6 ENE 1024,4 27 0,0
23.04.2017 22:00:00 7,6 3,3 10 5 16 9 NE 1024,7 20 0,0
23.04.2017 21:00:00 8,5 3,7 11 6 16 9 NNE 1024,7 13 0,0
23.04.2017 20:00:00 11,4 3,4 12 7 18 10 N 1024,7 34 0,0
23.04.2017 19:00:00 11,9 4,1 13 7 20 11 NNW 1024,9 53 0,0
23.04.2017 18:00:00 12,3 4,8 14 8 21 11 NNW 1025,3 42 0,0
23.04.2017 17:00:00 12,7 5,4 12 6 21 11 NNW 1025,6 36 0,0
23.04.2017 16:00:00 13,0 4,2 12 7 17 9 NW 1026,1 47 0,0
23.04.2017 15:00:00 12,9 4,3 12 7 20 11 WNW 1026,7 20 0,0
23.04.2017 14:00:00 12,0 4,2 12 6 17 9 WNW 1027,3 29 0,0
23.04.2017 13:00:00 11,5 5,6 11 6 20 11 WNW 1027,7 20 0,0
23.04.2017 12:00:00 12,1 3,1 8 5 20 11 E 1028,2 20 0,0
23.04.2017 11:00:00 10,5 2,8 13 7 21 11 SE 1028,4 19 0,0
23.04.2017 10:00:00 9,3 2,2 12 6 21 11 SE 1028,4 20 0,0
23.04.2017 09:00:00 7,2 4,0 10 5 15 8 ENE 1028,6 20 0,0
23.04.2017 08:00:00 5,9 4,2 8 5 11 6 E 1028,2 14 0,0
23.04.2017 07:00:00 5,8 4,1 8 4 12 6 E 1027,9 14 0,0
23.04.2017 06:00:00 5,4 4,4 5 3 10 6 E 1027,8 12 0,0
23.04.2017 05:00:00 5,2 4,3 9 5 14 8 E 1027,7 11 0,0
23.04.2017 04:00:00 6,0 4,8 11 6 15 8 E 1027,7 11 0,0
23.04.2017 03:00:00 5,5 4,6 10 5 15 8 ENE 1028,1 11 0,2
23.04.2017 02:00:00 6,1 5,2 7 4 10 6 ENE 1028,5 10 0,0
23.04.2017 01:00:00 7,0 5,5 5 3 9 5 ENE 1028,3 15 0,0
23.04.2017 00:00:00 7,5 5,8 5 3 9 5 ENE 1028,2 17 0,0
22.04.2017 23:00:00 7,8 5,9 7 4 11 6 ENE 1028,1 19 0,0
22.04.2017 22:00:00 8,0 6,1 10 5 15 8 NE 1027,8 18 0,0
22.04.2017 21:00:00 9,1 6,4 12 7 22 12 NE 1027,5 19 0,0
22.04.2017 20:00:00 10,5 7,0 21 11 29 16 NNE 1027,3 17 0,0
22.04.2017 19:00:00 11,8 6,9 20 11 31 17 N 1027,3 34 0,0
22.04.2017 18:00:00 11,9 7,6 20 11 28 15 N 1027,4 19 0,0
22.04.2017 17:00:00 12,4 7,9 17 9 28 15 NNW 1027,8 18 0,0
22.04.2017 16:00:00 12,4 7,7 18 10 31 17 NNW 1028,2 19 0,0
22.04.2017 15:00:00 12,9 7,3 22 12 32 18 NNW 1028,6 20 0,0
22.04.2017 14:00:00 13,0 8,9 22 12 29 16 NNW 1028,6 20 0,0
22.04.2017 13:00:00 12,5 8,4 21 11 26 14 NNW 1029,0 19 0,0
22.04.2017 12:00:00 12,9 7,3 12 6 26 14 NNE 1029,3 19 0,0
22.04.2017 11:00:00 11,8 8,3 16 9 25 14 N 1029,5 20 0,0
22.04.2017 10:00:00 11,1 9,4 12 6 18 10 N 1029,5 20 0,0
22.04.2017 09:00:00 10,5 10,2 5 3 8 5 NW 1029,5 4,1 0,0
22.04.2017 08:00:00 10,2 10,0 5 3 - - NW 1029,1 2,7 -
22.04.2017 07:00:00 - - - - - - - - - -
22.04.2017 06:00:00 9,9 9,7 8 5 13 7 W 1028,6 2,3 0,0
22.04.2017 05:00:00 9,4 9,3 9 5 13 7 WSW 1028,9 2,7 0,0
22.04.2017 04:00:00 6,7 6,6 8 5 10 5 WSW 1029,2 1,0 0,0
22.04.2017 03:00:00 6,9 6,6 4 2 7 4 S 1029,8 0,1 0,0
22.04.2017 02:00:00 7,8 7,2 3 2 7 4 SW 1030,3 3,6 0,0
22.04.2017 01:00:00 8,4 8,0 0 0 10 5 N 1030,5 3,4 0,2
22.04.2017 00:00:00 7,4 6,8 5 3 13 7 N 1030,7 5 0,0
21.04.2017 23:00:00 7,8 6,9 5 3 7 4 NNE 1030,8 7 0,0
21.04.2017 22:00:00 8,1 7,0 5 3 15 8 NNE 1030,9 8 0,0
21.04.2017 21:00:00 9,0 6,8 11 6 18 10 N 1030,7 11 0,0
21.04.2017 20:00:00 11,1 6,8 13 7 19 11 N 1030,7 17 0,0
21.04.2017 19:00:00 11,6 6,3 14 8 19 10 N 1031,0 19 0,0
21.04.2017 18:00:00 12,3 5,7 15 8 23 12 NNW 1031,4 19 0,0
21.04.2017 17:00:00 12,8 6,8 18 10 24 13 NW 1031,8 14 0,0
21.04.2017 16:00:00 12,2 4,9 13 7 21 11 NW 1032,5 13 0,0
21.04.2017 15:00:00 12,3 5,5 11 6 19 10 WNW 1032,9 13 0,0
21.04.2017 14:00:00 10,9 4,6 13 7 17 9 WNW 1033,7 8 0,0
21.04.2017 13:00:00 10,8 4,5 11 6 15 8 WNW 1034,1 11 0,0
21.04.2017 12:00:00 10,4 2,2 10 5 14 8 W 1034,3 15 0,0
21.04.2017 11:00:00 11,1 1,9 6 3 11 6 SW 1034,4 14 0,0
21.04.2017 10:00:00 9,9 0,2 6 3 9 5 S 1034,4 13 0,0
21.04.2017 09:00:00 8,0 4,8 0 0 4 2 N 1034,1 8 0,0
21.04.2017 08:00:00 3,7 0,7 3 2 5 3 SE 1034,3 10 0,0
21.04.2017 07:00:00 1,6 -0,8 2 1 3 2 ESE 1034,3 12 0,0
21.04.2017 06:00:00 2,3 -1,1 0 0 5 3 N 1034,3 12 0,0
21.04.2017 05:00:00 2,8 0,0 3 2 7 4 SE 1034,3 14 0,0
21.04.2017 04:00:00 5,0 0,4 7 4 9 5 E 1034,5 17 0,0
21.04.2017 03:00:00 4,5 0,3 5 3 11 6 E 1034,8 12 0,0
21.04.2017 02:00:00 5,8 0,3 8 4 10 5 E 1035,1 13 0,0
21.04.2017 01:00:00 5,3 0,5 5 3 9 5 E 1035,2 13 0,0
21.04.2017 00:00:00 5,9 0,6 5 3 7 4 E 1035,1 13 0,0
20.04.2017 23:00:00 5,6 0,6 5 3 11 6 NE 1035,4 14 0,0
20.04.2017 22:00:00 5,6 0,8 9 5 13 7 ENE 1035,4 14 0,0
20.04.2017 21:00:00 5,9 0,2 10 5 22 12 NNE 1035,2 17 0,0
20.04.2017 20:00:00 8,3 -0,2 14 8 28 15 NNE 1035,2 20 0,0
20.04.2017 19:00:00 9,2 -0,2 20 11 36 19 N 1035,6 19 0,0
20.04.2017 18:00:00 9,5 0,6 26 14 35 19 N 1035,5 18 0,0
20.04.2017 17:00:00 9,9 0,8 26 14 37 20 N 1035,8 18 0,0
20.04.2017 16:00:00 10,0 0,8 24 13 32 17 NNW 1036,2 19 0,0
20.04.2017 15:00:00 9,8 -0,1 23 13 32 17 NNW 1036,9 19 0,0
20.04.2017 14:00:00 9,6 0,2 21 12 29 15 NNW 1037,2 20 0,0
20.04.2017 13:00:00 9,1 -1,1 15 8 21 11 NW 1037,7 19 0,0
20.04.2017 12:00:00 9,3 -2,7 9 5 22 12 ENE 1037,9 20 0,0
20.04.2017 11:00:00 8,5 -4,0 10 5 20 11 ENE 1038,1 20 0,0
20.04.2017 10:00:00 7,1 -3,2 9 5 13 7 E 1038,1 15 0,0
20.04.2017 09:00:00 4,1 -3,4 8 4 10 5 E 1038,1 20 0,0
20.04.2017 08:00:00 2,4 -3,7 6 3 10 6 ENE 1037,8 19 0,0
20.04.2017 07:00:00 1,7 -4,0 6 4 10 5 ENE 1037,3 19 0,0
20.04.2017 06:00:00 1,8 -3,9 7 4 9 5 ENE 1037,1 19 0,0
20.04.2017 05:00:00 2,0 -3,7 6 3 9 5 E 1037,2 21 0,0
20.04.2017 04:00:00 2,4 -3,3 7 4 16 8 E 1037,2 21 0,0
20.04.2017 03:00:00 2,8 -2,9 10 5 18 10 E 1037,4 23 0,0
20.04.2017 02:00:00 3,4 -2,6 10 5 16 8 ENE 1037,3 26 0,0
20.04.2017 01:00:00 3,9 -1,7 11 6 16 9 NE 1037,2 33 0,0
20.04.2017 00:00:00 4,4 -1,0 10 5 22 12 NE 1037,1 41 0,0
19.04.2017 23:00:00 5,0 -0,6 16 9 23 13 NNE 1036,9 45 0,0
19.04.2017 22:00:00 5,8 -0,3 17 9 27 15 NNE 1036,2 45 0,0
19.04.2017 21:00:00 6,3 0,2 17 9 36 19 NNE 1035,9 44 0,0
19.04.2017 20:00:00 8,1 0,1 25 14 39 21 NNE 1035,2 42 0,0
19.04.2017 19:00:00 9,4 -0,5 23 13 46 25 NE 1035,1 46 0,0
19.04.2017 18:00:00 10,0 -1,4 25 14 42 23 NNE 1035,0 20 0,0
19.04.2017 17:00:00 10,5 -2,6 23 12 41 22 NE 1035,0 38 0,0
19.04.2017 16:00:00 11,0 -2,4 21 12 40 21 NNE 1035,4 41 0,0
19.04.2017 15:00:00 11,9 -2,4 23 13 36 19 NNE 1035,6 23 0,0
19.04.2017 14:00:00 11,4 0,8 18 10 32 18 NNE 1035,6 16 0,0
19.04.2017 13:00:00 10,5 -0,1 17 9 32 17 ENE 1035,9 15 0,0
19.04.2017 12:00:00 9,2 1,1 19 11 32 17 NNE 1035,9 13 0,0
19.04.2017 11:00:00 9,6 1,7 17 9 27 15 NE 1035,7 17 0,0
19.04.2017 10:00:00 8,2 2,8 10 5 16 9 ENE 1035,2 16 0,0
19.04.2017 09:00:00 6,0 2,5 9 5 14 7 ENE 1035,1 13 0,0
19.04.2017 08:00:00 3,9 2,1 6 3 11 6 ENE 1034,7 10 0,0
19.04.2017 07:00:00 3,2 1,4 8 5 12 7 ENE 1034,1 12 0,0
19.04.2017 06:00:00 3,5 1,5 8 4 13 7 ENE 1033,9 17 0,0
19.04.2017 05:00:00 3,6 1,5 9 5 16 9 ENE 1033,9 27 0,0
19.04.2017 04:00:00 4,4 1,9 8 4 13 7 NE 1033,7 45 0,0
19.04.2017 03:00:00 4,9 2,3 9 5 17 9 ENE 1033,4 44 0,0
19.04.2017 02:00:00 4,5 2,2 8 5 16 8 NNE 1033,2 50 0,0
19.04.2017 01:00:00 5,0 1,7 11 6 20 11 NE 1033,1 58 0,0
19.04.2017 00:00:00 5,0 2,0 5 3 14 7 NNE 1032,9 47 0,0
18.04.2017 23:00:00 5,5 2,1 10 5 15 8 ENE 1032,8 52 0,0
18.04.2017 22:00:00 5,6 0,8 10 6 20 11 NE 1032,4 60 0,0
18.04.2017 21:00:00 6,8 -0,4 11 6 29 16 NE 1031,7 60 0,0
18.04.2017 20:00:00 8,8 -1,1 24 13 40 22 NNE 1031,3 47 0,0
18.04.2017 19:00:00 9,6 -0,9 27 15 44 24 NNE 1030,7 43 0,0
18.04.2017 18:00:00 9,9 2,0 29 16 43 23 N 1030,7 49 0,0
18.04.2017 17:00:00 9,7 2,8 29 16 50 27 NNE 1030,5 55 0,0
18.04.2017 16:00:00 9,7 1,6 31 17 44 24 NNE 1030,7 19 0,0
18.04.2017 15:00:00 9,6 0,7 27 14 45 24 NNE 1030,6 20 0,0
18.04.2017 14:00:00 10,0 1,6 29 16 44 24 NNE 1030,4 60 0,0
18.04.2017 13:00:00 9,7 3,2 26 14 43 23 NNE 1030,3 20 0,0
18.04.2017 12:00:00 9,9 4,9 33 18 47 26 NNE 1029,8 34 0,0
18.04.2017 11:00:00 9,4 4,6 19 10 27 15 N 1029,2 47 0,0
18.04.2017 10:00:00 9,7 4,7 10 6 19 10 NNW 1028,8 54 0,0
18.04.2017 09:00:00 9,3 2,2 4 2 8 5 E 1028,4 56 0,0
18.04.2017 08:00:00 6,2 2,6 5 3 7 4 NE 1027,8 54 0,0
18.04.2017 07:00:00 6,5 2,2 6 3 11 6 ENE 1027,1 49 0,0
18.04.2017 06:00:00 7,3 4,1 8 4 11 6 NE 1026,6 48 0,0
18.04.2017 05:00:00 7,6 4,5 5 3 13 7 ENE 1026,3 43 0,0
18.04.2017 04:00:00 7,6 4,2 7 4 22 12 NE 1026,3 51 0,0
18.04.2017 03:00:00 7,8 4,0 11 6 18 10 N 1026,4 20 0,0
18.04.2017 02:00:00 7,5 4,3 7 4 11 6 N 1026,6 60 0,0
18.04.2017 01:00:00 7,3 4,3 5 3 13 7 NNE 1026,4 60 0,0
18.04.2017 00:00:00 7,6 4,4 10 5 15 8 NNE 1025,8 53 0,0
17.04.2017 23:00:00 7,5 4,4 5 3 14 8 ENE 1025,6 55 0,0

tt = Température de l'air
td = dewpoint
ff = Vitesse du vent
fx = gusts
dd = Direction du vent
ppp = reduced air pressure
vv = visibility
rr = Quantités de précipitations

stations d'obs. à proximité